Theta_e
308 311 318 320 314 313 313 310 311 313 312 312 312 313 313 313 312 310 312 310 307 310 312 311 310 309 309 310 310 308 307 307 307 307 305 304 303 302 301 300 300 300 299 299 299 298 298 297 298 298 298 298 298 298 299 301 302 302 303 303 303 304 304 305 306 309 312 315 317 318 320 322 323 323 324 325 325 325 324 324 323 323 323 322 321 320
309 310 317 321 314 310 311 310 310 311 311 313 314 313 313 313 312 310 311 310 308 309 310 309 309 309 309 310 308 307 307 307 306 306 305 304 303 302 300 300 299 299 299 299 298 298 297 297 297 297 298 298 298 298 298 300 302 302 303 303 303 304 304 305 305 307 309 313 317 318 317 318 321 323 324 324 325 325 325 323 323 322 322 320 320 320
314 315 317 314 308 308 312 311 312 312 313 314 314 314 314 313 312 311 311 311 309 309 310 309 309 309 309 309 307 306 306 307 306 305 305 304 303 301 299 299 299 299 298 298 298 297 297 297 297 297 297 297 298 298 298 299 300 301 302 303 303 304 304 304 305 305 307 310 314 318 319 317 318 320 323 324 324 324 324 323 322 322 321 320 320 322
313 317 313 306 304 309 314 314 314 313 315 316 314 314 314 313 311 310 310 308 307 309 311 310 309 308 307 307 306 306 306 306 305 304 302 302 302 300 299 299 299 298 298 298 297 297 297 296 296 297 297 297 298 298 298 298 300 300 301 303 304 304 304 304 305 305 306 307 309 313 317 319 318 318 319 322 323 323 324 324 322 321 321 320 321 323
312 310 306 306 311 313 312 314 315 313 315 318 317 314 313 312 310 309 309 307 306 308 310 309 307 306 306 306 306 306 306 305 304 302 299 300 300 299 298 299 298 298 298 297 297 296 296 296 296 296 297 298 299 299 299 299 300 300 301 302 303 304 304 304 305 305 305 306 307 311 315 319 320 319 317 318 321 322 323 323 322 321 320 320 321 322
312 307 304 310 316 314 313 314 313 311 314 318 316 311 309 310 310 309 309 307 305 306 309 307 305 305 305 306 307 306 306 304 303 301 298 298 299 298 298 299 298 298 298 297 297 296 296 296 295 296 298 300 300 299 298 299 299 300 300 301 302 304 305 305 305 305 306 306 307 309 314 318 319 320 319 318 319 321 321 321 321 320 319 319 321 321
309 307 307 312 314 314 315 315 312 311 313 315 311 307 307 309 310 310 309 307 306 305 307 308 307 306 305 306 309 308 305 302 300 299 297 296 298 298 298 299 298 298 297 297 296 296 296 296 295 295 296 298 298 297 297 298 298 299 299 300 301 303 304 305 305 305 306 306 307 307 309 314 318 319 320 320 320 320 321 321 321 320 319 319 320 320
310 311 312 313 313 314 313 312 311 309 312 314 308 306 309 310 309 309 308 307 307 306 307 309 309 307 307 308 309 307 304 301 298 296 296 295 296 297 297 298 298 297 297 296 296 296 296 296 295 294 295 295 295 295 296 297 297 298 298 299 300 301 303 305 305 306 306 306 306 307 306 310 316 318 318 319 321 320 320 322 322 321 320 320 320 320
308 310 312 310 312 312 310 309 309 308 312 314 308 306 309 309 308 308 308 308 307 306 307 309 309 307 308 307 306 305 302 299 297 295 294 294 295 297 297 297 297 296 296 296 296 295 295 296 296 295 294 294 294 294 295 296 296 297 297 298 299 300 302 304 304 305 306 306 306 307 307 307 312 318 318 318 320 320 321 321 322 322 321 320 320 320
306 306 306 307 310 311 309 307 307 309 310 308 306 306 306 308 309 308 309 308 307 307 306 308 310 307 305 303 303 304 300 296 295 294 294 294 295 296 296 296 295 295 295 295 295 295 295 295 296 295 294 294 294 294 294 295 295 296 296 297 298 299 301 302 303 304 305 306 306 306 307 307 308 313 317 318 319 319 320 321 321 321 320 320 321 320
306 304 305 307 307 307 307 305 303 305 304 302 306 308 306 308 311 310 309 308 307 308 305 304 306 302 300 301 302 301 298 295 294 294 294 294 295 295 295 294 294 294 295 295 295 294 294 295 295 295 295 294 294 294 294 294 294 295 296 296 296 297 298 300 301 302 303 305 306 306 307 307 307 309 313 318 319 319 320 321 320 320 320 320 320 320
309 309 307 306 305 305 307 306 303 302 300 301 306 308 306 306 308 307 307 308 307 306 302 300 301 299 298 301 301 297 294 294 293 293 293 294 294 294 294 293 293 294 294 294 294 293 293 294 295 295 295 295 294 294 294 294 294 294 295 296 296 296 296 297 299 300 302 303 304 306 307 307 307 308 310 315 319 319 320 320 320 320 320 320 320 319
314 310 305 305 305 304 308 310 307 304 302 304 308 308 306 305 305 302 300 303 305 303 300 299 298 298 297 300 302 297 294 293 293 293 294 294 294 293 293 293 293 293 294 293 293 293 293 294 295 296 296 295 294 294 294 294 293 294 294 295 296 296 295 296 296 297 300 302 302 304 306 307 308 308 308 312 317 318 319 320 320 320 319 319 320 320
312 309 305 307 307 303 307 310 306 304 304 304 306 307 306 305 302 297 297 299 300 299 298 297 298 299 300 301 300 297 294 293 293 294 294 294 293 293 293 293 293 293 293 293 292 292 293 293 294 295 296 296 295 294 294 294 293 293 293 294 295 296 296 295 295 296 298 300 301 302 305 306 307 308 308 310 314 317 319 320 320 320 320 320 320 320
307 308 306 306 307 304 305 306 303 303 303 302 306 307 306 307 302 296 297 298 297 297 297 297 299 301 301 300 296 293 293 294 293 294 294 293 293 293 293 293 293 293 292 292 292 292 293 293 294 295 296 296 295 295 294 293 293 293 293 293 295 296 296 296 295 295 296 298 300 301 302 305 306 307 308 308 310 314 318 320 319 320 320 320 320 321
306 307 305 301 302 302 300 300 301 303 302 301 303 302 302 306 304 299 299 298 296 296 297 298 299 299 299 298 294 292 293 293 293 294 293 293 293 292 293 293 292 292 292 292 292 292 292 293 294 294 295 296 295 295 294 293 293 293 293 293 294 295 296 296 295 295 295 296 298 299 300 302 305 306 307 308 309 311 316 319 319 320 320 320 320 320
308 308 306 301 300 299 297 297 298 300 303 301 299 297 300 304 302 300 300 299 297 296 296 296 296 296 295 295 294 293 293 293 293 293 292 292 292 292 292 292 292 292 291 291 292 292 292 293 293 294 294 295 295 294 294 294 293 293 293 293 293 294 296 296 295 295 294 294 296 298 298 300 302 304 305 307 308 309 314 319 319 319 320 319 320 320
308 307 305 303 304 300 296 297 296 295 299 301 298 297 299 299 299 299 298 298 297 295 295 295 294 293 293 294 294 293 292 293 292 292 292 292 292 292 292 292 291 291 291 291 291 292 292 292 293 293 293 294 294 294 294 294 294 293 293 293 293 293 295 296 295 294 294 294 294 296 297 297 299 302 303 305 307 308 311 316 319 319 319 319 318 318
305 305 303 302 303 300 297 299 299 296 296 296 297 296 296 297 297 297 295 294 294 293 293 294 293 293 293 293 292 292 292 292 292 292 292 292 292 292 291 291 291 291 291 291 291 291 292 292 292 292 293 293 293 293 293 294 294 294 293 293 292 293 294 295 296 294 294 294 294 295 295 296 297 299 301 304 306 307 309 314 318 319 319 319 318 317
304 305 303 299 299 299 300 300 299 300 298 295 295 296 297 298 296 294 294 294 295 294 293 293 292 293 293 292 292 292 292 292 292 292 292 292 291 291 291 291 291 291 291 291 291 291 291 292 292 292 292 292 292 292 293 293 293 294 293 293 292 293 293 295 296 295 294 294 294 294 294 295 296 297 299 302 305 306 308 312 318 319 319 319 319 318
303 306 304 299 297 298 300 300 299 300 298 296 295 295 296 297 295 293 293 293 294 294 293 293 292 292 293 292 292 292 292 292 292 292 291 291 291 290 291 291 291 291 291 291 291 291 291 291 291 292 292 292 292 292 292 292 293 293 293 292 292 292 293 294 296 295 294 294 294 294 294 294 295 296 297 300 303 305 306 309 315 318 319 318 318 318
301 303 303 300 298 298 299 300 299 298 297 295 295 294 295 295 295 294 293 292 293 293 293 292 292 292 292 293 293 292 292 292 292 291 291 290 290 290 290 291 291 291 291 291 291 291 291 291 291 291 291 292 292 292 292 292 292 292 292 292 292 292 293 293 295 295 294 294 294 293 294 294 295 295 295 297 300 303 305 307 312 317 318 317 318 318
298 300 302 299 297 297 297 296 295 296 296 295 294 295 295 294 294 294 293 293 293 292 292 293 292 293 293 294 293 292 292 291 291 291 290 290 290 290 290 291 291 291 291 291 291 291 291 291 291 291 291 291 291 291 292 292 292 292 292 292 292 292 293 293 294 295 294 294 294 293 293 294 294 295 295 296 298 300 303 306 309 315 317 317 317 318
297 300 301 298 296 294 293 292 292 293 294 294 294 295 294 294 294 294 293 293 293 292 292 292 292 292 293 293 293 292 291 291 291 290 290 290 290 290 290 291 290 291 291 291 291 291 291 291 291 291 291 291 291 291 291 291 292 292 292 292 292 292 293 293 294 295 294 293 294 293 293 293 294 295 294 295 296 298 301 304 306 311 317 318 317 318
298 300 299 297 295 293 292 292 292 292 293 293 293 294 294 294 293 293 293 293 292 292 292 291 291 291 291 292 292 291 291 290 290 290 290 290 290 290 290 291 291 291 291 291 290 290 290 290 290 290 291 291 291 291 291 292 292 292 292 292 292 292 292 293 294 294 293 293 294 293 293 293 294 294 294 294 295 296 299 302 303 308 315 318 317 317
299 299 298 296 296 294 293 294 294 294 294 293 293 293 293 293 293 293 293 292 292 292 291 291 290 290 291 291 291 290 290 290 290 290 290 290 290 290 291 291 291 291 290 290 290 289 289 289 290 290 290 291 291 291 291 291 291 292 292 292 292 292 292 293 293 294 293 293 293 293 293 293 293 294 294 294 294 295 297 300 302 304 312 318 317 317
299 298 296 295 295 294 293 293 293 294 293 293 293 293 292 293 292 292 292 292 292 291 290 291 290 290 291 290 290 290 289 289 290 290 290 290 291 291 291 291 290 290 289 289 289 289 289 289 289 289 289 289 289 289 290 290 290 291 291 291 292 292 292 293 293 293 293 293 293 293 293 292 292 293 294 294 294 294 296 299 301 302 308 315 317 316
298 297 296 295 295 293 293 293 292 293 293 293 293 293 293 293 292 292 292 292 291 291 290 291 290 290 290 289 289 290 289 289 290 290 290 290 291 291 290 290 289 289 288 288 288 288 287 286 285 284 284 285 285 285 286 287 288 289 290 290 291 292 292 293 293 293 293 293 293 293 292 292 291 292 293 294 294 294 295 297 300 302 305 313 317 315
297 297 296 295 294 293 293 293 292 293 293 293 293 293 292 292 292 292 292 291 291 291 291 290 290 290 289 289 289 289 289 290 289 290 290 290 290 290 289 288 288 287 287 287 286 285 283 282 281 280 280 281 281 281 282 283 284 286 287 287 288 290 291 291 292 292 293 293 293 292 292 291 291 291 293 294 293 293 295 296 299 301 303 309 315 316
296 297 295 293 294 293 293 293 293 293 293 293 292 292 292 292 292 292 291 291 291 291 290 290 289 289 289 289 289 289 290 290 290 290 290 290 289 288 287 287 287 286 285 284 283 281 280 279 279 278 278 278 278 278 278 280 281 281 282 283 284 286 287 288 289 290 291 291 291 291 291 290 290 291 293 294 293 293 294 296 298 301 302 306 313 316
295 296 294 293 294 294 293 293 293 292 293 293 292 292 291 291 291 291 291 290 290 290 289 289 289 289 289 290 289 289 290 290 290 290 289 288 287 287 286 286 285 284 283 281 280 279 278 278 277 277 277 277 277 276 276 277 277 278 279 280 281 282 284 285 286 287 288 289 289 290 290 289 290 292 293 294 293 293 294 296 297 300 301 304 311 315
295 295 294 294 295 294 293 293 292 292 292 292 291 291 291 291 291 291 290 290 290 289 289 289 289 289 289 290 289 290 290 290 289 289 288 287 286 286 286 285 283 282 280 279 278 277 277 277 276 276 276 276 275 276 276 276 276 276 277 278 279 280 281 282 284 285 287 288 288 288 288 289 290 292 293 293 292 293 294 296 297 299 301 303 309 314
295 295 295 295 295 294 292 292 292 290 291 293 293 292 292 292 291 290 290 290 290 290 289 289 289 289 289 289 289 289 289 289 288 287 286 285 285 285 284 283 281 280 278 277 277 276 276 276 275 275 275 275 274 274 275 275 275 276 276 277 277 278 279 281 282 284 285 287 287 288 288 290 291 293 293 292 292 293 295 296 297 299 301 303 308 313
293 294 295 294 294 293 291 290 290 290 292 295 295 293 292 291 290 290 289 289 290 290 290 289 289 289 289 289 289 289 288 287 286 285 285 285 285 284 282 281 279 278 277 276 276 275 275 275 274 274 274 273 274 274 274 274 275 275 276 276 277 278 278 279 281 283 284 286 287 288 289 291 292 292 291 291 292 293 295 296 297 299 301 303 306 312
294 294 294 293 292 292 291 291 292 293 295 294 293 292 291 290 290 290 289 289 289 289 289 289 289 289 289 289 289 288 286 285 285 285 285 285 284 282 280 279 278 277 276 275 274 274 274 273 273 273 273 273 273 274 274 274 275 276 276 276 277 277 278 279 280 281 283 284 286 288 289 290 291 291 291 292 292 293 295 296 296 298 302 302 305 310
293 293 293 292 291 290 292 293 293 294 293 291 291 292 291 290 290 290 289 289 290 289 289 289 289 289 289 288 287 286 285 284 284 285 286 285 282 280 279 278 277 276 275 274 273 273 273 272 272 272 273 273 273 274 274 275 275 276 276 276 277 277 278 278 279 281 282 284 286 287 289 289 290 290 291 292 293 293 295 296 296 298 302 302 304 308
292 292 293 292 291 290 292 292 291 291 291 291 291 292 291 290 290 290 290 290 290 289 289 289 289 289 288 287 286 284 283 283 283 285 286 284 281 279 278 277 276 275 274 273 273 272 272 272 272 272 273 273 273 274 274 275 275 275 275 276 277 277 278 278 279 280 281 283 285 287 288 289 289 290 292 292 293 294 295 296 296 298 301 302 303 308
292 292 292 292 292 292 291 291 291 292 293 293 291 291 291 290 289 289 289 290 290 289 289 289 288 287 286 285 284 282 282 282 282 283 284 282 279 278 277 276 275 274 273 272 272 271 271 271 272 272 272 273 274 274 275 275 276 276 276 276 277 277 278 278 279 280 280 282 283 285 287 288 289 291 292 292 293 294 295 296 296 298 301 302 303 307
292 292 292 292 292 292 291 291 292 292 293 292 291 290 290 289 289 289 290 290 290 289 289 288 287 286 285 284 282 281 282 282 282 282 281 279 277 276 275 274 273 273 272 272 271 271 271 271 271 272 272 273 273 273 274 275 276 276 276 277 277 278 278 279 279 280 280 281 282 284 287 288 289 290 291 292 293 294 295 296 296 298 301 301 302 306
291 291 292 291 292 291 290 290 290 290 291 291 291 290 290 289 289 290 290 290 290 289 287 286 285 285 283 282 281 281 281 281 280 279 279 277 276 275 274 273 272 272 271 271 270 270 270 271 271 271 271 272 272 272 273 274 275 276 277 277 278 279 279 280 281 281 281 281 282 284 286 287 289 290 291 292 293 294 296 296 296 298 300 301 301 305
291 291 291 291 291 291 290 290 289 289 290 291 291 290 290 290 290 290 290 290 288 287 287 285 284 283 282 280 279 280 280 279 278 277 276 275 275 274 273 272 272 271 271 270 270 270 270 270 270 270 270 271 271 271 272 273 274 275 276 277 279 279 280 281 282 282 282 282 282 284 286 287 288 289 289 291 293 294 296 296 296 298 300 300 301 304
292 292 291 290 289 290 290 289 289 290 290 290 290 290 290 291 291 291 290 289 287 286 286 285 283 281 280 279 278 278 277 277 276 275 275 274 273 272 272 271 271 270 270 269 269 269 269 269 269 269 269 270 270 271 271 272 272 274 275 276 278 279 281 282 283 283 284 284 284 285 286 287 288 289 289 291 292 295 296 296 296 298 300 300 300 303
292 293 292 290 289 289 289 288 289 292 292 290 290 291 291 291 291 290 289 288 287 285 285 284 283 280 278 278 278 278 276 276 275 275 274 273 272 272 271 270 270 270 269 269 269 268 268 268 268 268 268 269 270 271 271 271 271 272 273 275 277 278 280 282 283 284 286 287 287 287 287 288 289 290 290 291 293 295 297 296 296 298 299 300 300 302
292 293 293 291 290 291 290 290 291 292 291 290 290 291 291 290 290 289 287 286 286 285 284 283 282 280 278 277 277 276 275 275 275 274 273 272 272 271 270 270 270 269 269 269 268 268 267 267 267 267 268 269 270 271 270 270 270 271 273 276 278 279 279 281 283 284 286 288 289 289 289 289 290 290 291 292 294 296 296 296 296 298 299 300 300 301
292 293 292 292 292 292 292 292 291 291 290 290 291 290 290 289 289 288 287 286 285 284 283 282 282 281 279 277 276 275 274 274 274 274 272 271 271 271 270 269 269 268 268 269 269 267 267 266 266 267 268 270 271 271 269 269 269 271 274 277 279 279 279 281 283 285 286 288 289 291 291 292 292 292 292 294 295 296 296 296 297 298 299 299 299 300
292 291 291 291 292 291 291 291 291 290 290 291 291 290 289 289 288 288 288 287 285 284 282 281 281 281 280 277 275 274 274 273 273 272 272 271 271 271 270 269 268 268 269 270 270 268 267 266 266 266 268 270 271 270 269 269 269 271 274 277 278 279 280 281 283 286 288 288 289 291 292 292 293 293 294 295 296 296 296 296 297 298 299 299 299 300
291 291 291 291 291 292 291 291 291 291 290 291 291 290 289 289 288 288 287 286 285 283 282 281 280 280 280 277 275 273 273 272 271 271 271 271 271 271 270 269 269 269 269 270 270 268 267 266 266 266 267 268 269 269 269 271 271 273 275 277 278 279 281 282 284 286 288 289 290 290 291 292 293 294 294 295 296 296 296 296 297 297 298 299 299 299
291 291 291 291 291 291 291 291 291 290 290 291 290 290 289 288 288 287 286 285 285 284 282 281 280 280 279 276 274 273 273 272 271 270 270 270 271 270 270 269 269 270 272 273 272 270 268 266 266 266 266 266 267 269 270 272 273 275 276 277 278 279 281 283 285 286 288 289 290 291 292 292 293 294 294 295 296 296 296 296 296 297 298 299 299 299
291 291 291 291 291 291 291 291 291 290 290 290 290 289 289 288 287 286 286 285 285 284 283 282 281 280 278 276 274 273 273 273 271 270 269 270 271 270 270 269 268 269 273 274 274 272 269 267 266 266 266 266 268 269 271 272 273 275 276 277 278 280 282 284 286 287 288 289 290 292 292 293 293 293 294 295 296 296 296 296 296 297 299 299 299 299
291 291 291 292 291 291 291 291 291 291 290 290 289 289 288 288 287 286 286 285 285 284 283 282 281 279 278 276 274 273 273 273 272 270 269 270 270 270 270 269 268 269 272 274 274 275 273 269 267 266 267 268 270 270 270 271 273 276 277 278 279 281 282 284 286 288 290 290 291 292 293 293 294 294 295 296 296 296 296 296 297 298 299 299 300 300
291 291 291 291 291 291 291 290 290 290 290 290 289 289 288 287 286 285 285 285 285 284 283 282 281 280 278 276 274 273 273 273 272 270 270 270 270 270 271 270 268 268 270 273 275 276 274 271 269 270 271 272 273 272 271 273 276 278 278 279 281 282 283 284 285 288 290 291 292 293 293 294 295 295 295 296 296 296 295 296 297 298 299 299 300 300
Wind_Speed
8 6 3 1 3 6 5 3 4 4 4 4 5 3 5 8 8 5 4 4 8 9 9 12 18 25 24 16 15 24 24 18 16 13 19 19 21 24 26 27 29 30 31 36 41 45 47 48 48 49 49 50 50 49 46 42 38 34 33 34 35 33 30 27 24 25 30 37 42 43 42 43 47 51 52 52 53 53 52 49 46 45 43 42 41 37
6 5 1 5 5 5 4 4 3 1 2 3 4 5 6 6 9 9 3 3 8 8 11 14 19 28 22 15 17 18 16 10 10 14 14 18 20 23 26 27 28 29 32 38 42 45 47 48 49 49 49 49 50 49 47 44 41 37 34 34 35 34 32 28 24 24 26 33 40 44 45 42 42 48 53 54 54 54 54 51 50 49 46 43 42 39
7 2 6 6 4 1 3 4 4 2 2 4 3 4 5 4 7 9 3 3 6 4 11 14 15 26 18 12 15 9 6 7 19 21 18 21 22 24 26 27 28 31 36 40 42 43 44 45 46 45 46 46 46 47 46 44 43 41 37 35 35 34 33 30 26 23 24 27 33 41 45 45 43 44 49 54 56 56 56 52 50 51 47 43 42 42
4 5 6 2 3 4 4 4 5 4 2 3 4 3 5 5 6 7 9 13 8 3 7 10 10 18 12 8 12 6 12 14 23 26 28 27 24 25 25 26 30 33 37 39 41 43 43 45 44 42 41 40 40 42 44 44 44 43 40 38 37 35 33 32 29 24 23 24 26 34 41 46 48 46 45 48 52 55 57 54 50 50 47 44 43 45
6 9 4 3 5 5 3 5 5 4 4 3 3 2 4 7 6 7 10 16 15 2 3 5 8 13 8 7 12 8 15 17 20 25 31 29 24 25 25 28 31 33 35 37 39 41 42 42 42 39 36 35 36 36 37 38 41 42 41 38 37 37 34 32 31 27 23 23 24 29 38 44 47 48 50 51 50 50 52 51 49 49 47 46 46 46
6 6 2 4 6 7 4 4 2 0 4 4 2 1 4 7 7 9 11 12 13 7 3 6 9 13 9 9 11 8 11 11 14 19 24 26 23 24 26 28 31 34 35 37 37 39 39 38 39 39 34 34 37 37 36 35 36 39 40 39 37 37 36 34 32 29 24 23 23 26 35 43 45 46 52 57 55 52 53 53 50 50 50 49 49 48
4 3 3 5 5 7 6 3 4 2 1 3 2 1 2 5 6 10 12 8 7 10 2 7 3 12 11 6 7 4 9 8 10 13 18 23 20 19 21 23 28 33 35 38 39 40 39 38 39 40 37 37 40 42 41 38 37 37 39 40 39 38 38 36 34 32 28 24 23 24 29 38 45 47 48 51 54 54 55 55 52 51 51 50 50 49
3 4 6 6 6 6 4 2 4 2 3 2 1 2 4 6 8 9 9 6 5 9 6 4 5 8 8 3 3 5 7 8 10 11 15 21 19 17 18 20 27 31 34 37 40 41 41 39 39 40 40 40 42 45 44 43 42 40 40 41 40 38 38 38 37 35 32 28 24 23 25 32 42 50 49 47 50 53 53 54 53 52 52 52 51 50
2 2 5 5 6 3 1 1 4 0 1 4 3 2 3 5 8 7 6 7 4 5 5 2 4 4 6 3 5 7 6 8 11 11 12 18 20 19 19 23 29 33 36 39 41 43 44 42 41 40 40 41 42 44 45 45 44 44 44 43 41 40 38 39 40 37 34 31 27 24 24 28 38 47 52 50 48 50 52 54 55 54 53 53 53 51
1 1 3 5 4 1 2 2 2 4 2 6 5 3 3 4 6 4 5 6 4 4 3 3 1 2 8 6 5 5 6 7 9 9 10 17 20 20 23 29 35 40 43 45 47 49 49 46 42 40 39 39 41 43 45 44 44 45 46 45 45 43 40 40 41 40 36 33 28 25 26 27 33 41 48 52 49 47 50 52 53 55 55 55 55 54
5 1 3 4 2 4 3 2 2 5 1 5 4 5 5 4 3 2 2 2 3 2 3 3 3 3 7 5 3 3 5 5 6 8 12 19 23 23 29 36 41 43 45 47 49 50 51 47 42 39 38 38 41 43 45 45 45 46 46 46 47 46 44 42 42 42 38 35 32 26 26 27 30 35 41 50 54 50 52 55 52 54 56 55 56 56
7 3 3 3 2 2 4 3 2 4 6 6 5 4 5 5 3 1 2 2 2 4 3 1 6 5 7 3 5 5 5 7 7 10 12 15 20 26 35 43 45 45 45 46 49 51 50 47 44 42 41 42 43 43 44 45 45 46 46 46 46 47 47 46 45 45 41 37 36 31 26 27 29 32 37 45 55 55 54 59 57 55 56 55 56 58
6 2 1 1 3 3 4 2 4 5 8 8 4 4 4 4 5 3 3 1 4 8 2 3 8 5 9 5 4 5 7 9 8 13 16 17 25 36 44 49 49 49 48 47 49 51 49 47 46 44 43 45 45 42 42 44 45 46 46 46 45 45 46 48 48 47 44 39 37 35 29 27 29 30 34 40 50 56 54 58 61 59 58 57 59 59
4 3 3 1 2 5 4 4 3 3 4 4 2 2 3 2 5 6 5 3 4 9 8 6 4 5 6 2 4 5 2 9 17 25 27 29 36 42 45 46 46 46 47 46 48 49 48 49 48 45 45 46 46 43 41 42 44 46 47 47 46 44 43 45 49 49 47 42 38 37 33 29 30 31 33 38 41 49 52 55 60 61 59 59 62 61
1 3 2 1 1 2 4 4 4 3 3 1 2 3 3 2 1 4 4 3 5 12 15 11 4 3 2 1 5 2 5 18 31 31 27 30 36 40 40 41 42 43 45 45 47 48 48 49 49 48 47 46 46 45 42 42 43 45 48 49 47 45 43 43 46 50 49 45 41 38 36 32 30 31 33 36 37 38 46 54 56 59 59 59 63 62
1 4 2 2 1 4 2 2 4 5 3 2 2 3 1 2 4 3 3 3 4 10 12 6 4 5 3 1 1 7 14 23 28 23 21 28 35 36 36 37 40 43 44 44 46 48 49 50 50 49 48 48 47 46 45 43 43 45 48 50 49 46 43 42 43 48 50 48 44 40 38 35 32 32 33 35 36 36 42 53 56 57 60 58 61 62
1 3 3 1 1 3 1 2 2 4 2 1 2 1 4 3 5 1 4 4 2 6 6 5 8 8 5 5 7 13 16 18 17 15 19 30 35 34 34 38 41 44 45 45 45 47 48 49 50 49 48 49 49 49 48 46 44 45 47 51 52 48 44 43 42 45 49 50 47 44 42 39 35 33 33 33 33 34 39 51 58 58 59 58 60 61
2 3 6 4 2 1 3 9 9 7 4 3 1 3 3 0 3 4 1 3 3 5 5 6 13 13 7 4 7 13 17 16 13 13 19 28 31 31 34 40 44 46 47 46 46 48 49 50 51 51 49 50 51 51 50 49 47 46 47 51 53 50 47 43 42 43 47 49 49 47 45 43 39 36 34 33 30 31 35 45 58 59 60 60 60 60
2 1 4 1 3 2 3 9 6 7 8 4 3 2 2 1 1 1 2 1 4 5 4 8 14 11 4 1 8 15 17 15 13 15 18 22 25 30 36 41 44 47 48 48 49 51 53 54 54 53 52 52 52 53 52 51 51 49 48 52 53 51 47 44 41 42 44 47 48 47 47 45 43 40 36 32 30 28 32 40 56 61 61 63 61 59
1 1 1 1 3 3 2 3 0 3 5 3 2 3 2 2 2 1 1 2 3 4 3 7 12 7 1 3 12 16 15 12 13 16 17 19 25 33 38 41 44 46 47 49 52 55 58 59 59 57 55 54 53 54 54 52 52 50 50 53 54 50 47 44 41 40 42 45 47 47 47 46 45 44 39 33 30 27 30 37 50 60 60 63 65 60
1 1 2 3 2 1 1 1 3 3 1 1 3 2 1 1 0 1 1 2 3 1 1 4 12 8 2 6 12 14 13 11 13 16 17 21 31 37 41 44 46 47 49 52 55 58 61 63 64 62 60 58 55 55 54 52 50 50 51 54 53 50 47 45 42 40 41 43 45 46 47 47 46 46 43 37 31 28 27 32 40 55 56 58 65 64
1 1 3 3 3 1 3 4 4 6 6 5 3 2 2 1 1 2 3 2 3 2 3 3 12 10 2 4 9 11 11 11 15 18 18 25 36 41 44 47 48 49 51 54 57 59 61 65 67 68 65 61 58 55 54 52 51 51 54 54 53 50 47 45 43 41 41 42 43 45 46 47 46 46 47 41 34 29 25 27 34 51 59 55 61 65
2 2 1 4 4 3 4 4 1 5 7 5 3 2 2 2 3 1 4 4 2 3 4 4 11 11 2 2 7 9 13 18 22 23 22 29 40 44 46 49 50 53 55 56 58 60 63 68 70 69 66 63 60 57 54 53 52 52 53 53 52 51 48 45 42 42 42 41 42 44 45 45 45 45 48 45 39 33 26 25 31 44 62 59 59 65
2 3 1 3 3 1 4 6 4 4 4 2 1 2 3 2 2 4 5 4 4 5 4 3 10 11 4 4 8 13 19 24 28 29 28 32 40 45 47 50 52 54 57 58 61 65 68 71 70 67 65 62 60 57 54 54 53 52 52 52 52 51 49 45 41 41 42 41 40 42 43 44 44 44 47 47 43 39 30 24 29 34 55 62 60 63
1 0 2 2 5 3 4 4 4 3 1 1 2 2 4 3 4 2 2 2 2 6 8 5 8 11 8 8 12 16 18 19 25 33 33 33 41 46 47 50 52 54 59 64 68 69 70 71 71 68 64 62 61 59 56 54 52 51 51 51 51 51 50 46 41 40 42 40 38 40 41 41 44 44 45 48 45 43 36 26 26 31 45 59 58 62
2 1 2 1 3 4 4 4 2 2 2 1 3 5 3 4 4 1 1 1 2 6 10 7 8 13 13 13 16 17 16 16 21 30 35 39 45 47 46 50 57 60 65 69 70 71 72 72 69 65 61 59 57 55 52 51 51 51 51 52 50 50 50 46 41 41 43 40 37 39 41 40 43 45 45 48 47 45 42 31 24 28 38 53 53 57
2 1 2 5 6 5 6 7 2 2 2 5 10 12 7 4 4 3 3 2 5 8 10 8 10 17 17 16 17 18 17 17 18 23 31 38 42 45 50 59 66 67 69 70 68 66 66 63 60 57 55 53 50 48 47 46 46 46 46 48 49 49 49 45 41 42 43 40 37 38 41 41 44 47 45 46 49 46 43 36 27 25 32 50 54 54
4 1 3 6 9 7 7 10 5 3 1 6 11 16 13 7 5 3 3 6 7 6 10 11 13 17 17 17 18 19 18 16 17 21 28 34 38 45 56 63 66 68 70 68 63 58 56 57 59 60 59 56 54 55 54 52 50 47 44 45 44 44 43 42 41 44 43 40 40 41 43 45 47 50 47 46 49 47 43 38 29 24 27 44 57 55
4 2 5 5 8 6 5 9 7 1 3 6 11 16 14 12 10 7 7 10 7 6 12 15 17 18 17 16 16 18 19 19 23 27 30 36 46 54 58 58 58 63 67 65 62 59 59 60 59 58 56 54 54 56 56 54 53 51 49 48 47 45 44 43 43 43 40 40 43 45 47 50 52 51 47 46 49 47 42 39 30 24 25 36 55 58
3 1 3 3 5 4 5 8 7 3 4 8 14 16 13 12 14 11 10 11 10 13 17 19 20 18 14 13 14 20 27 31 34 34 32 39 53 59 56 52 54 60 63 62 61 60 59 57 55 55 54 52 52 54 54 53 51 51 51 51 51 51 51 50 49 49 48 50 54 55 54 55 55 50 46 46 48 47 41 38 32 24 25 31 49 59
1 0 1 0 3 4 6 7 6 4 5 10 15 15 12 13 12 10 9 8 8 13 17 18 18 14 11 12 16 26 36 36 34 32 31 40 53 55 50 47 51 58 61 61 59 56 55 55 54 55 53 52 53 54 55 55 55 54 53 52 52 52 52 53 54 56 59 59 60 60 59 59 54 48 45 46 48 46 39 37 34 25 24 30 44 57
1 1 1 3 2 3 4 4 3 4 5 11 14 14 13 12 8 7 7 5 6 11 15 15 13 11 11 14 18 26 32 30 28 30 34 44 52 50 47 48 53 58 59 59 59 58 58 58 54 53 53 53 54 54 54 56 58 57 54 52 51 50 50 51 51 54 57 59 61 63 61 56 49 44 44 47 47 43 37 35 35 27 23 31 41 52
2 1 1 2 1 3 2 3 1 1 1 8 10 9 10 10 8 9 8 6 7 9 9 9 10 11 13 15 17 21 23 24 28 33 38 44 44 39 42 49 54 58 60 60 60 59 59 58 53 51 54 55 55 55 55 56 55 54 54 52 50 48 47 47 47 48 50 52 54 55 50 45 41 41 45 47 44 38 35 34 34 29 24 30 41 48
3 3 1 2 1 3 2 1 0 1 2 4 4 7 8 8 9 11 10 7 7 8 8 10 11 13 14 15 17 19 22 29 40 42 40 40 38 34 40 50 54 58 61 60 59 57 55 54 53 52 54 55 56 56 56 56 55 54 53 52 49 46 44 44 44 45 46 44 41 39 37 37 39 42 45 44 38 35 35 34 33 30 25 29 39 47
3 4 2 1 2 3 4 4 3 4 5 5 3 5 8 8 8 11 12 8 7 9 11 12 12 13 15 18 22 26 32 43 54 51 37 31 36 38 40 48 56 60 60 58 56 56 55 54 54 56 56 55 55 54 53 55 59 60 55 50 48 46 44 44 43 43 46 46 44 41 40 39 42 44 42 38 36 34 34 32 32 29 26 28 37 47
4 3 2 1 1 2 3 2 2 5 6 7 6 6 6 4 4 7 9 7 5 6 9 10 13 15 17 22 28 34 41 48 53 54 46 36 37 41 41 45 52 56 57 56 55 56 57 55 55 56 56 53 51 52 50 47 51 58 56 50 49 50 46 44 42 41 42 43 43 43 44 44 43 42 37 35 35 34 32 31 32 27 25 29 37 48
5 3 2 1 1 2 1 3 3 5 8 6 3 3 2 1 1 2 7 9 5 4 7 10 14 17 18 24 33 38 40 36 30 41 59 59 52 55 54 49 49 51 53 55 55 54 53 52 52 52 52 50 48 49 50 45 43 51 55 53 53 52 47 43 41 40 40 40 38 37 38 38 37 35 35 36 34 31 30 31 30 26 25 29 37 49
6 4 3 1 2 2 1 3 3 4 5 4 3 3 2 1 0 3 4 7 3 5 13 13 13 17 17 24 35 33 28 19 8 22 57 71 65 65 65 60 58 56 53 52 53 54 52 50 49 49 49 50 50 50 53 50 46 49 55 57 57 52 47 45 43 41 40 40 38 35 34 33 34 35 36 35 31 29 30 30 28 25 25 29 38 49
5 4 2 2 2 1 1 4 2 1 6 7 6 6 6 8 5 2 2 5 2 10 20 15 14 19 19 24 31 22 14 11 6 20 51 67 64 65 65 62 62 62 57 52 49 50 52 51 51 52 51 51 53 54 55 53 50 51 55 57 57 53 49 48 46 43 41 39 35 35 33 32 34 36 36 34 31 29 29 28 27 24 24 29 37 47
4 2 1 3 5 3 3 3 2 4 8 7 7 10 13 13 6 4 3 6 6 17 23 17 17 23 23 26 26 13 7 8 11 28 50 58 57 60 59 56 57 56 56 56 53 50 51 51 51 53 52 51 53 56 56 52 51 53 54 54 55 54 52 50 47 44 41 38 33 33 33 32 34 35 34 33 32 29 27 27 26 22 23 28 35 45
2 2 3 4 5 6 6 4 3 5 7 7 11 14 10 7 4 2 4 6 10 20 24 20 20 24 25 25 17 11 16 22 27 40 51 50 51 55 54 53 54 50 46 48 50 51 53 53 51 51 50 50 52 54 53 50 49 51 52 53 53 53 51 50 47 43 40 35 30 29 31 32 35 36 35 34 32 29 27 26 25 21 22 26 34 44
2 1 2 3 4 4 4 3 1 6 6 8 12 12 3 3 2 5 8 10 12 18 24 25 24 24 26 26 21 22 33 38 40 47 49 48 49 51 50 52 55 55 51 47 47 49 52 53 54 53 51 51 51 52 51 49 49 49 48 49 50 50 49 47 45 42 36 30 26 27 28 28 30 34 35 34 31 28 26 25 24 21 21 25 33 42
4 3 2 3 4 2 1 2 1 6 5 7 4 4 1 1 4 7 12 16 15 16 23 29 27 23 24 28 31 35 41 43 45 48 50 51 51 47 46 49 51 54 57 54 50 50 51 52 54 55 54 54 54 53 51 48 48 49 49 48 46 44 44 44 43 41 35 27 24 26 28 29 30 33 35 33 28 26 25 24 24 21 20 24 32 41
3 4 3 3 3 3 3 4 3 4 4 1 4 4 3 4 8 9 11 14 17 19 22 27 29 25 22 26 31 36 39 41 45 47 48 51 54 51 50 52 53 56 59 57 53 53 53 54 55 56 57 57 54 52 51 49 49 51 52 49 43 39 38 38 37 37 35 30 25 23 25 27 29 31 32 29 25 24 24 23 24 21 20 25 31 39
5 4 3 2 3 4 5 6 7 8 12 17 15 8 5 7 10 10 10 12 18 21 21 23 27 25 23 25 28 33 36 38 42 45 45 47 52 54 52 52 56 59 58 58 59 57 55 56 58 59 60 57 54 55 55 52 52 54 52 47 42 40 39 37 34 31 29 29 28 25 23 23 23 24 25 22 21 22 23 23 24 22 20 24 30 38
6 3 2 1 3 3 5 11 14 15 18 20 16 9 8 10 10 10 13 16 19 21 20 20 22 24 23 24 26 31 34 35 39 44 46 46 50 53 53 52 55 58 59 61 63 61 61 62 61 60 61 59 59 60 60 56 55 55 51 45 42 41 39 36 34 30 25 24 25 25 24 23 23 22 21 20 20 22 23 23 23 22 21 25 30 36
4 5 4 3 4 4 4 6 8 10 12 15 17 14 10 10 11 12 16 20 21 22 20 18 19 22 23 22 23 29 33 34 37 42 45 46 48 52 53 52 54 57 59 61 62 62 64 65 63 63 64 64 65 64 61 59 57 53 49 46 45 43 38 34 32 30 26 24 22 22 23 23 23 23 22 20 21 23 23 23 23 22 22 26 31 36
3 6 5 5 7 6 5 7 12 15 17 18 19 15 11 10 13 15 18 21 22 22 21 19 19 21 22 21 22 26 31 32 34 39 43 44 45 48 50 52 55 58 58 59 63 64 64 64 65 64 64 65 66 64 62 62 59 54 50 48 45 42 38 34 31 28 27 25 24 23 23 22 23 23 23 22 23 24 24 24 24 24 24 27 32 36
5 6 5 4 5 6 7 11 15 15 13 12 11 12 12 14 14 16 19 21 22 22 21 21 20 19 20 20 21 25 30 32 32 34 39 41 42 44 46 49 53 56 57 59 62 62 62 63 64 64 65 65 66 66 67 66 62 57 53 48 44 40 37 34 30 27 26 25 24 25 24 24 25 24 24 24 24 25 26 25 25 24 24 28 32 36
7 5 3 3 3 6 7 9 9 6 5 9 11 12 15 17 16 18 21 21 21 22 22 22 22 20 19 18 19 22 27 31 32 33 35 37 38 41 43 47 52 53 54 56 58 59 62 64 63 63 65 66 67 69 69 67 62 57 52 46 42 39 36 33 30 26 24 24 24 24 24 24 24 24 25 25 25 26 28 27 25 24 24 28 31 34
11 8 7 6 5 9 11 13 11 7 7 15 17 16 17 19 19 20 20 21 22 23 21 21 23 23 21 19 18 19 24 28 30 31 33 34 35 37 40 43 47 50 52 54 56 60 63 63 62 64 66 68 68 69 67 63 59 57 53 46 40 37 35 34 31 28 27 26 24 22 21 22 22 21 23 25 25 26 27 27 25 23 23 26 29 31
Wind_Direction
22 21 57 77 303 300 280 207 206 215 208 251 278 274 285 294 295 293 277 317 3 343 312 318 315 301 305 329 330 331 347 347 341 43 68 42 37 38 32 36 34 30 25 16 12 10 8 7 6 5 2 0 359 358 357 356 355 354 352 351 351 353 351 343 332 308 279 261 250 243 240 239 236 236 238 236 234 233 234 233 230 223 218 218 218 218
27 29 245 220 232 277 268 190 173 240 279 304 302 309 314 294 297 303 289 346 20 4 309 317 315 298 306 333 322 335 350 347 30 63 61 39 36 34 34 38 33 26 18 12 10 8 6 6 4 3 1 359 357 355 354 352 351 350 348 346 343 344 345 341 335 323 297 270 256 248 243 242 238 235 235 235 233 232 233 233 230 226 224 220 217 217
9 327 245 232 199 117 64 102 91 33 319 313 303 325 322 310 311 303 287 348 16 22 305 312 306 294 310 333 314 352 38 41 63 62 43 34 30 32 36 34 28 21 14 11 8 6 5 4 3 3 1 358 356 353 352 349 347 346 345 342 339 336 336 336 333 325 311 288 266 255 249 246 244 239 235 234 235 235 235 234 231 228 223 215 215 217
338 268 248 220 141 95 41 30 56 39 353 309 301 322 310 330 354 313 318 330 322 178 256 291 288 287 310 331 307 23 74 63 65 54 34 30 31 36 36 29 25 19 13 8 4 2 0 0 1 3 1 358 356 353 351 348 345 344 342 339 336 332 329 330 330 324 317 306 283 265 256 249 245 245 241 233 230 230 232 232 229 228 222 213 214 217
265 268 287 61 81 75 13 340 31 26 338 306 273 297 317 329 337 297 312 326 319 283 184 310 306 287 317 348 311 2 66 63 55 44 30 26 31 34 27 23 21 15 10 4 0 359 357 357 359 360 359 355 355 354 351 347 344 343 340 337 333 330 327 325 327 327 321 310 294 276 265 253 244 241 238 234 230 224 224 227 228 228 222 214 213 215
270 278 341 48 41 53 53 342 353 34 328 326 263 230 333 319 314 307 316 330 326 318 97 39 330 290 319 349 311 338 68 67 45 44 30 20 26 28 21 19 14 7 3 359 356 355 354 354 355 357 355 350 351 353 351 346 342 340 339 337 333 329 328 325 323 326 326 313 299 283 267 256 248 240 232 230 232 229 228 233 235 230 222 215 212 215
272 314 49 73 53 46 52 349 284 187 41 329 206 140 342 317 316 315 318 332 312 293 334 79 312 285 311 328 289 343 79 76 40 44 27 18 23 24 20 17 9 1 356 354 353 352 352 351 352 356 355 350 348 350 351 349 343 340 339 338 335 331 329 328 324 324 325 319 306 292 274 261 253 246 237 230 229 230 231 232 232 229 223 217 213 215
252 331 21 53 64 48 35 350 277 156 104 263 213 41 351 326 315 309 307 298 262 289 318 130 191 272 297 284 286 356 62 58 30 31 20 13 12 13 17 9 1 355 350 350 349 348 348 347 348 352 355 354 351 349 349 349 348 344 341 339 336 333 331 330 327 323 322 320 312 300 285 270 259 249 243 237 230 225 225 224 224 226 224 218 214 215
228 353 28 47 55 37 319 273 270 186 110 267 277 342 316 299 292 289 279 271 269 313 322 237 195 266 278 288 337 350 44 40 17 17 8 3 3 6 7 359 353 349 346 347 345 344 343 341 342 345 349 353 353 352 348 346 347 346 344 341 338 335 333 332 331 326 321 319 314 305 292 278 266 255 244 239 233 221 217 218 218 222 224 220 215 215
265 60 90 94 88 211 234 262 281 87 83 284 304 328 300 279 262 256 250 265 308 326 288 264 173 309 288 295 331 355 46 29 359 5 355 355 2 5 1 353 348 346 344 342 340 339 336 334 335 337 341 344 347 351 350 345 343 343 343 343 341 340 337 334 334 330 325 322 317 305 297 287 274 263 247 237 234 226 216 216 217 220 224 221 214 214
297 8 110 96 121 196 159 89 65 82 40 303 353 358 330 311 260 232 245 283 336 297 208 205 96 46 303 308 66 79 69 33 353 358 350 355 3 1 355 348 345 343 340 338 335 332 331 329 328 330 334 338 340 343 347 347 343 339 339 340 340 342 340 337 336 333 328 326 324 310 298 292 281 273 259 239 231 229 222 218 220 221 221 218 213 212
330 35 91 69 60 147 116 79 24 23 3 11 37 5 335 325 307 329 350 19 312 261 189 89 26 14 282 289 95 120 67 35 11 358 349 355 0 353 348 344 342 340 336 333 330 327 326 325 324 326 328 332 335 337 341 345 344 339 335 334 335 338 340 338 337 336 332 329 330 323 305 295 287 280 274 252 232 227 226 220 219 219 220 220 216 211
340 359 330 45 54 46 96 84 344 357 20 26 23 14 15 345 333 334 326 309 251 256 234 33 7 322 263 271 79 85 36 12 358 358 357 0 357 349 344 340 337 334 331 329 326 324 323 322 321 321 323 326 329 331 336 339 341 340 335 331 330 332 336 337 336 336 334 330 332 331 318 304 295 285 282 270 241 227 225 221 216 216 218 220 216 212
330 299 324 24 19 13 77 98 351 337 44 42 3 53 77 3 333 315 298 301 277 272 285 322 324 273 267 277 114 116 44 353 358 2 3 0 352 343 337 333 330 329 328 327 324 323 322 321 319 317 317 322 323 325 330 334 336 338 336 331 326 326 330 333 334 334 333 331 331 332 327 315 304 292 287 284 259 234 225 219 214 213 215 216 214 213
277 279 331 35 287 17 59 127 174 168 110 165 188 127 128 151 240 269 275 304 315 299 302 318 299 250 308 199 161 156 356 3 2 359 358 352 341 333 329 327 326 326 326 326 324 323 322 322 320 317 315 316 318 318 321 327 331 333 334 331 325 322 324 328 331 333 332 332 331 331 330 323 313 303 293 288 280 258 235 222 215 213 214 214 213 212
147 258 277 352 140 104 52 241 178 119 112 220 156 98 117 180 189 231 261 250 285 292 297 316 267 255 312 291 18 8 1 3 358 350 347 340 332 328 326 325 326 325 325 325 324 323 323 323 321 317 314 313 314 313 314 319 325 328 330 330 324 318 318 322 327 330 331 331 330 331 331 327 319 312 303 291 285 279 254 229 218 216 214 216 215 211
59 269 249 255 62 66 338 266 84 92 150 211 67 152 234 193 151 140 308 301 293 276 287 309 284 290 326 329 358 4 354 352 347 342 339 332 330 329 326 325 325 324 323 323 323 322 322 322 320 316 313 312 311 311 310 311 316 321 325 327 324 317 314 317 321 327 329 329 329 329 331 330 324 317 312 301 288 286 268 235 220 217 214 214 216 212
138 257 241 202 119 11 123 107 77 53 85 104 150 223 245 60 116 120 70 327 306 267 280 297 290 300 315 315 360 356 341 340 338 335 332 329 330 327 323 324 323 322 322 322 322 321 319 319 317 314 311 310 311 310 307 305 307 313 318 322 321 315 311 312 317 322 326 328 328 328 329 329 327 321 315 307 294 290 280 244 222 218 214 212 215 217
128 294 278 191 141 216 116 98 65 24 55 103 205 219 89 75 306 51 92 267 274 273 287 297 296 301 276 248 352 340 331 333 332 331 329 326 327 324 321 321 321 320 320 320 320 319 317 316 314 312 309 308 308 308 306 303 302 304 310 316 317 314 309 306 310 317 321 324 325 325 326 327 328 325 317 307 293 293 294 259 226 217 216 213 212 217
134 122 281 238 188 197 39 67 209 341 24 41 22 29 65 136 193 225 144 179 243 273 286 303 305 302 159 348 336 327 323 330 331 329 324 320 322 320 318 317 317 317 317 317 317 316 315 314 312 311 308 306 305 305 304 301 298 298 303 310 311 310 307 302 302 311 316 319 322 323 324 324 326 327 323 312 294 290 301 275 232 214 214 214 211 215
66 122 205 240 263 2 348 244 182 178 167 43 42 39 349 1 103 220 229 159 155 223 238 303 294 279 80 2 324 314 317 326 329 323 317 317 317 316 316 315 314 313 314 315 315 314 314 313 311 311 308 305 302 301 301 298 294 295 299 304 307 306 305 300 297 303 311 315 318 321 323 323 323 325 326 322 304 288 296 289 248 219 213 213 209 211
127 156 189 241 293 275 238 239 197 171 158 146 141 160 195 203 58 355 293 222 127 154 188 256 278 274 58 6 303 308 316 319 324 318 312 313 313 313 314 313 311 311 312 313 312 312 311 311 310 309 307 305 303 299 298 296 293 294 296 299 302 302 301 299 296 298 306 310 313 317 321 321 321 321 323 325 318 298 287 298 272 231 218 218 211 208
130 107 193 262 252 225 276 295 212 152 140 145 155 147 166 171 121 119 265 277 313 260 223 222 264 275 13 3 287 307 313 313 317 313 309 311 312 312 312 311 312 312 312 313 312 311 311 310 309 307 305 304 303 300 297 295 293 292 294 296 298 298 297 296 294 295 301 306 309 314 318 319 318 318 320 322 324 314 292 294 288 239 218 219 217 208
115 84 65 281 277 49 4 351 15 69 98 134 225 126 139 179 197 195 221 255 288 272 251 235 260 273 330 331 295 305 309 310 314 314 312 311 311 312 312 312 313 313 315 315 313 312 311 310 309 307 305 303 303 301 298 295 293 292 292 293 294 295 295 293 291 292 298 301 304 310 314 316 316 315 317 318 320 321 305 290 297 259 220 213 216 212
164 122 89 337 320 359 33 11 351 344 27 193 256 185 160 197 240 232 226 251 272 255 246 243 263 278 306 313 302 305 307 308 311 314 315 313 312 313 314 315 316 317 317 315 313 312 311 311 309 306 305 303 302 301 298 295 294 292 292 293 292 292 292 290 287 291 296 296 299 306 310 313 314 311 313 315 315 319 314 295 298 280 231 211 210 212
165 220 125 130 283 281 287 299 289 272 280 266 259 252 216 205 221 221 2 252 245 262 261 253 266 282 296 306 304 306 310 309 309 314 318 316 315 316 318 319 319 318 316 314 312 312 311 310 310 308 307 307 305 303 301 299 297 294 292 292 291 291 291 287 287 291 294 292 293 302 306 310 313 310 309 311 311 314 316 304 297 289 246 218 212 210
101 278 197 181 206 224 248 269 299 67 309 292 293 288 277 230 209 152 111 222 251 281 281 268 271 286 298 308 308 309 313 312 310 315 319 318 318 322 322 320 318 316 314 312 311 311 312 313 315 315 314 314 313 310 309 308 307 304 301 297 293 291 288 284 287 293 291 287 289 297 302 305 311 310 305 305 307 309 313 309 299 292 257 227 219 214
86 288 244 215 228 234 243 265 290 57 276 275 284 285 287 292 270 193 190 246 258 281 285 283 288 292 299 307 309 310 312 312 314 317 320 321 322 323 320 317 316 316 315 314 314 315 318 320 320 319 317 315 314 311 309 307 307 306 305 304 301 295 290 288 292 293 286 283 287 292 297 301 308 309 301 299 304 305 309 310 301 291 265 230 219 218
93 238 242 237 249 249 248 265 273 244 251 262 264 272 285 294 284 265 256 261 260 262 273 287 294 292 297 306 305 305 309 311 314 319 324 325 323 321 319 316 316 316 316 317 319 321 321 321 320 320 319 318 317 317 315 310 306 303 301 301 300 296 292 294 297 293 285 284 288 290 293 298 304 304 296 293 300 303 304 309 303 289 273 235 217 217
99 229 242 259 274 260 230 252 261 229 238 261 263 267 274 276 276 275 270 269 265 262 268 282 291 290 293 300 299 305 312 314 317 325 331 327 322 321 319 317 317 318 319 320 320 320 320 319 319 320 319 319 318 319 319 316 311 307 303 300 298 294 292 293 291 287 285 285 287 287 289 295 299 297 289 287 296 301 301 305 305 290 278 248 217 212
141 120 163 120 306 264 217 229 242 208 220 256 266 271 275 277 280 274 265 264 264 268 278 289 294 294 297 303 309 314 317 319 322 329 333 326 321 319 317 317 319 320 321 322 321 320 319 318 318 319 318 317 317 317 316 316 314 312 309 304 300 296 293 292 289 285 284 283 283 284 286 291 293 287 281 284 293 299 298 301 305 293 274 255 223 209
191 232 38 56 343 268 184 177 220 198 214 253 264 273 276 274 274 266 257 247 254 275 291 299 301 305 310 316 317 317 320 322 324 332 331 323 320 319 318 320 321 320 321 322 321 319 319 318 317 318 316 314 314 314 314 315 316 315 314 309 304 300 295 292 289 285 282 280 279 281 284 287 284 274 274 284 292 297 295 296 302 293 268 252 230 210
151 156 88 77 317 268 134 117 192 161 238 264 256 245 245 250 261 271 266 245 247 270 290 297 299 302 309 319 322 321 325 324 323 330 328 317 314 318 321 320 319 320 321 322 321 319 317 316 314 315 315 313 312 311 311 312 312 311 311 310 307 304 298 293 290 287 285 284 282 281 279 276 269 267 276 286 291 293 291 293 299 291 264 246 234 218
162 151 160 142 185 274 310 43 333 299 264 257 210 176 203 238 259 270 276 270 260 269 278 281 291 302 312 323 324 323 326 321 319 323 324 318 318 325 324 320 318 319 320 320 320 319 318 317 315 313 311 310 311 310 308 309 311 310 310 309 307 306 302 296 291 287 286 286 283 277 269 264 265 272 282 287 287 289 287 288 297 290 261 242 233 223
168 157 167 143 156 268 316 5 344 267 237 238 232 217 235 248 251 264 274 266 244 260 277 285 296 308 317 323 323 324 325 322 319 320 324 328 330 330 325 321 321 321 320 318 318 318 319 319 317 316 313 311 312 313 310 310 314 315 313 309 306 304 302 300 295 286 281 280 278 273 267 267 272 278 283 283 282 285 283 284 296 288 257 241 235 226
160 144 157 140 154 258 320 350 249 262 275 278 274 271 270 267 276 290 290 278 242 253 282 300 310 317 322 324 325 327 328 324 319 321 330 338 337 332 325 320 320 321 321 319 316 316 319 318 316 316 314 311 312 313 310 309 313 314 311 308 306 305 302 301 298 292 285 281 279 277 272 272 275 276 276 277 278 281 279 283 295 286 251 240 236 226
159 134 139 145 197 184 230 244 250 313 316 296 263 266 249 187 206 290 295 301 297 291 320 326 321 323 327 326 328 330 330 326 317 323 333 339 338 333 327 323 324 323 321 320 317 315 316 317 316 315 313 312 312 313 313 312 311 310 309 309 310 308 304 301 297 293 288 282 278 278 275 273 274 271 270 273 276 277 277 282 293 282 247 238 234 224
178 178 160 166 217 129 120 267 317 356 304 265 250 250 205 100 137 182 267 294 291 343 345 342 324 324 332 330 329 331 330 329 307 318 331 336 336 333 330 330 330 328 323 321 319 317 316 317 317 316 314 314 315 316 316 316 313 309 307 309 311 308 301 298 297 295 292 283 274 272 272 271 270 267 267 271 273 275 275 280 290 277 243 233 231 223
191 220 179 161 226 108 118 254 260 234 255 269 281 278 302 330 342 96 288 281 289 350 347 348 330 329 337 332 328 327 328 336 320 312 325 329 328 326 327 328 330 330 327 325 322 318 318 319 319 319 318 317 318 321 323 321 318 314 310 310 312 308 302 299 298 297 295 288 276 269 270 269 265 264 267 270 270 273 273 277 286 275 241 231 231 224
175 216 190 202 228 206 188 233 233 237 259 273 276 283 303 316 339 61 324 287 336 346 342 347 337 331 334 331 327 326 323 320 297 305 318 322 322 323 325 323 324 327 327 328 327 323 321 322 321 321 322 320 320 324 327 325 321 318 316 316 314 309 306 306 305 301 298 293 279 267 265 264 260 261 266 267 268 270 269 273 283 271 238 230 231 224
173 207 205 209 224 220 221 238 258 261 258 260 271 281 301 324 339 348 289 301 346 338 331 337 335 328 328 327 320 302 301 302 302 310 318 322 322 323 325 325 327 328 325 325 327 327 325 325 325 323 323 322 322 326 332 331 325 321 320 319 316 314 315 316 313 307 302 296 283 268 265 265 262 263 265 264 264 268 266 270 278 266 238 231 230 224
168 194 215 190 192 219 229 209 278 290 258 232 256 268 269 67 335 285 288 312 335 332 326 328 328 327 327 324 314 307 309 312 317 322 325 326 324 321 322 328 333 335 334 331 331 331 329 327 328 328 329 331 333 337 341 338 329 325 324 320 318 321 324 324 320 314 308 299 284 272 270 268 264 261 261 260 262 265 264 267 274 263 238 231 230 224
170 168 220 198 171 170 168 149 268 283 225 171 200 267 219 151 262 275 295 308 319 329 327 322 322 326 327 324 323 321 320 321 326 329 329 329 329 326 325 327 331 335 339 338 336 336 334 330 331 334 338 342 344 346 349 342 331 329 331 328 326 327 327 324 322 319 314 305 286 273 268 265 259 256 257 258 259 261 261 265 271 261 236 229 230 224
182 174 188 195 169 156 166 185 202 214 204 217 332 305 256 258 269 275 292 307 316 324 323 319 320 323 327 326 325 323 322 324 328 331 331 332 334 334 331 333 339 343 345 344 342 341 339 336 337 342 345 348 350 352 354 347 337 335 338 337 336 335 330 326 323 319 316 312 300 285 274 268 263 259 258 257 256 257 260 263 266 259 236 226 228 224
226 210 188 200 202 183 189 221 238 255 279 296 303 292 263 271 273 275 291 307 313 317 318 317 319 324 331 332 326 321 321 324 327 329 330 330 334 335 333 335 343 346 348 351 351 349 347 345 345 347 349 351 355 357 356 351 346 344 343 341 341 340 335 329 324 317 313 312 308 302 293 283 274 266 260 257 255 257 261 262 262 258 239 227 227 223
243 221 127 159 235 261 254 244 251 265 275 283 292 299 289 275 262 271 298 310 313 315 318 318 321 328 335 335 328 322 323 325 327 330 332 332 334 337 336 335 341 346 351 355 357 357 355 354 352 352 352 355 359 359 356 355 353 350 347 346 345 342 336 330 323 314 306 303 302 301 299 294 287 277 269 263 260 260 261 260 261 259 242 229 227 224
249 189 169 222 247 264 270 241 239 251 263 279 293 296 280 265 266 282 303 314 318 319 321 322 326 330 334 336 331 324 324 328 329 330 334 335 337 340 340 337 342 350 354 355 357 358 358 356 355 355 355 357 358 358 357 358 358 354 352 352 349 344 338 331 325 316 304 294 290 288 288 287 284 279 274 268 263 262 262 259 258 258 247 233 227 224
216 164 177 237 239 232 254 274 273 273 276 282 286 279 262 261 280 298 312 319 321 321 322 324 329 332 334 338 335 327 326 331 333 332 334 337 341 344 343 342 348 356 360 0 1 0 358 356 357 358 357 356 357 358 1 1 0 358 357 355 351 347 341 334 328 320 308 297 287 279 276 275 274 273 270 266 262 262 263 259 256 256 250 237 229 225
178 159 173 213 241 254 269 276 279 285 288 277 260 259 270 279 289 307 318 318 317 319 322 323 327 334 338 339 338 333 331 333 335 334 334 338 344 347 347 347 352 357 2 4 4 3 0 359 358 358 358 358 359 2 4 3 1 0 359 356 354 351 345 337 330 322 315 306 295 282 274 270 268 268 266 264 262 262 264 262 259 258 252 240 232 229
188 192 199 188 245 262 255 254 258 268 283 273 262 266 280 288 299 311 316 315 315 319 322 323 325 332 339 342 341 338 334 336 338 336 335 339 345 349 351 352 352 355 2 5 5 6 7 4 1 0 1 2 4 6 5 3 1 2 2 360 358 357 352 345 338 329 325 320 307 293 285 277 270 266 265 263 262 262 264 264 262 258 250 241 235 231
208 202 205 199 226 249 251 254 251 232 254 278 284 284 286 294 305 311 311 312 314 317 321 324 326 330 335 342 347 344 338 338 340 338 337 341 347 350 354 355 352 355 2 6 7 8 8 5 4 6 7 8 8 8 6 5 6 7 6 4 3 3 1 357 350 344 341 334 320 306 297 288 278 271 266 262 260 260 261 261 261 255 245 240 238 234